This demonstration page uses our WeatherBlox Daily Observations layout. Learn more.

Left ArrowRight Arrow

36.19886, -115.1175

Hourly Observations for December 8, 2015

Temp ( °F °C ) Dew Point ( °F °C ) Humidity (%) Winds ( mph kmh ) Pressure ( in mb ) Visibility ( mi km ) Precip ( " mm )
12:53 am 00:53 Clear 46 7.8 19 -7.2 34 34 NNE 5 7 30.23 1024 10 16 0.00 0.00
1:53 am 01:53 Clear 45 7.2 19 -7.2 35 35 Calm 30.22 1023 10 16 0.00 0.00
2:53 am 02:53 Clear 45 7.2 18 -7.8 34 34 WNW 7 11 30.22 1023 10 16 0.00 0.00
3:53 am 03:53 Clear 44 6.7 18 -7.8 35 35 WNW 5 7 30.21 1023 10 16 0.00 0.00
4:53 am 04:53 Clear 43 6.1 18 -7.8 37 37 Calm 30.22 1023 10 16 0.00 0.00
5:53 am 05:53 Clear 44 6.7 19 -7.2 37 37 Calm 30.23 1024 10 16 0.00 0.00
6:53 am 06:53 Sunny 41 5 19 -7.2 41 41 NNW 6 9 30.26 1025 10 16 0.00 0.00
7:53 am 07:53 Sunny 46 7.8 19 -7.2 34 34 NNW 5 7 30.27 1025 10 16 0.00 0.00
8:53 am 08:53 Sunny 53 11.7 21 -6.1 28 28 N 3 6 30.27 1025 10 16 0.00 0.00
9:53 am 09:53 Sunny 55 12.8 20 -6.7 25 25 Calm 30.28 1026 10 16 0.00 0.00
10:53 am 10:53 Sunny 58 14.4 17 -8.3 20 20 Calm 30.25 1024 10 16 0.00 0.00
11:53 am 11:53 Sunny 61 16.1 17 -8.3 18 18 Calm 30.22 1023 10 16 0.00 0.00
12:53 pm 12:53 Sunny 62 16.7 19 -7.2 19 19 SSE 3 6 30.19 1022 10 16 0.00 0.00
1:53 pm 13:53 Sunny 64 17.8 18 -7.8 17 17 SE 3 6 30.16 1021 10 16 0.00 0.00
2:53 pm 14:53 Sunny 64 17.8 19 -7.2 18 18 Calm 30.16 1021 10 16 0.00 0.00
3:53 pm 15:53 Sunny 63 17.2 19 -7.2 18 18 Calm 30.16 1022 10 16 0.00 0.00
4:53 pm 16:53 Clear 59 15 20 -6.7 22 22 SSE 3 6 30.17 1022 10 16 0.00 0.00
5:53 pm 17:53 Clear 56 13.3 22 -5.6 27 27 Calm 30.18 1022 10 16 0.00 0.00
6:53 pm 18:53 Clear 54 12.2 23 -5 30 30 NNW 5 7 30.19 1022 10 16 0.00 0.00
7:53 pm 19:53 Clear 52 11.1 25 -3.9 35 35 WNW 6 9 30.19 1022 10 16 0.00 0.00
8:53 pm 20:53 Clear 51 10.6 25 -3.9 36 36 NW 6 9 30.19 1022 10 16 0.00 0.00
9:53 pm 21:53 Clear 52 11.1 26 -3.3 37 37 NW 3 6 30.19 1022 10 16 0.00 0.00
10:53 pm 22:53 Clear 49 9.4 26 -3.3 41 41 Calm 30.18 1022 10 16 0.00 0.00
11:53 pm 23:53 Clear 47 8.3 27 -2.8 46 46 NNW 3 6 30.18 1022 10 16 0.00 0.00

Powered by AerisWeather